RH
45 42 46 44 37 26 20 11 6 4 3 4 3 3 3 3 2 2 2 2 3 3 4 4 4 5 5 6 7 8 6 7 15 21 38 27 25 59 100 100 100 100 100 100 100
54 50 41 34 27 16 10 7 5 4 4 3 3 3 3 3 2 2 2 3 3 3 4 4 4 4 5 6 6 7 6 8 14 20 30 38 29 36 65 100 100 100 100 100 100
60 46 43 34 20 13 9 6 4 4 3 3 3 3 3 2 2 2 2 2 3 3 3 4 4 4 4 4 6 7 7 9 12 18 24 36 28 32 36 71 100 100 100 100 100
48 41 33 23 14 8 6 5 4 4 3 3 3 3 3 2 2 3 3 3 2 3 3 3 4 4 4 4 6 7 8 10 12 14 20 33 32 33 47 57 100 100 100 100 100
38 25 17 12 10 8 7 5 4 4 3 3 3 2 2 2 3 2 2 2 2 3 3 4 3 4 4 5 5 6 8 9 12 16 18 24 31 33 46 90 66 100 100 100 100
27 19 15 12 8 8 6 4 4 4 3 3 3 2 2 2 2 2 2 2 2 3 3 3 3 4 4 4 5 8 8 8 10 14 16 18 36 30 43 60 71 69 98 100 100
25 15 12 8 8 7 6 5 4 4 3 3 3 2 2 2 2 2 2 2 2 2 3 3 3 3 5 5 6 7 8 8 9 13 15 17 25 47 38 47 89 45 93 100 100
20 17 13 10 8 8 6 4 4 4 4 4 3 3 2 2 2 2 2 2 2 2 3 3 4 4 4 5 6 7 8 8 10 11 13 15 22 69 48 55 82 87 61 100 100
16 14 13 11 8 8 9 8 6 3 6 4 2 3 2 2 2 2 2 2 2 2 2 4 4 4 4 5 5 6 8 10 12 11 12 13 21 36 57 57 54 100 100 80 100
21 17 14 11 8 7 10 11 8 3 4 3 2 3 2 2 2 2 2 3 2 3 3 4 4 4 4 5 5 7 9 10 10 12 12 13 18 19 57 78 59 54 72 98 97
24 15 13 13 9 9 12 10 9 8 10 4 3 2 2 2 2 2 2 2 3 3 3 3 3 4 4 6 6 6 8 10 11 12 14 16 16 20 37 83 70 49 57 100 87
18 14 12 10 12 11 13 6 5 4 5 5 3 3 2 2 2 2 2 2 3 2 2 3 4 4 4 5 6 6 8 10 10 11 13 16 14 22 23 63 89 66 52 54 84
18 16 10 14 19 16 15 13 7 6 4 4 3 2 3 2 2 2 2 3 3 3 2 3 4 4 4 5 5 6 7 10 10 11 12 14 13 18 22 53 82 74 60 50 43
20 15 14 18 20 29 15 14 7 6 4 3 3 3 2 3 3 3 2 2 3 3 3 3 3 4 5 5 5 6 7 9 10 11 12 14 11 13 21 35 87 97 71 50 43
20 19 21 26 22 18 21 13 7 6 4 3 3 3 2 3 3 4 3 2 3 3 4 3 4 4 4 5 5 6 6 8 10 10 12 13 13 15 18 21 79 97 90 74 46
29 28 29 40 31 26 15 20 10 5 4 3 3 3 3 3 4 4 3 3 2 4 4 4 4 4 5 5 5 6 7 8 9 9 10 12 13 15 16 22 60 100 100 100 86
33 30 32 44 40 28 31 20 9 6 3 3 3 3 3 3 4 4 4 3 3 3 5 4 4 4 5 5 5 6 7 8 8 8 8 11 11 18 16 21 24 87 100 100 100
37 34 42 47 39 43 35 18 11 4 3 3 3 3 3 3 4 4 4 4 3 3 4 5 4 5 5 6 6 6 7 8 8 8 9 10 11 13 16 21 25 60 90 100 100
38 34 35 42 41 42 25 17 11 5 4 4 4 3 3 4 4 4 4 4 4 3 4 5 5 4 5 5 6 6 7 9 9 9 10 11 13 13 20 22 36 50 63 94 100
36 34 37 37 44 45 26 20 10 5 4 4 3 4 4 4 4 5 5 5 5 4 4 5 6 6 5 6 6 6 8 8 10 10 10 12 13 13 21 23 32 49 50 89 100
35 33 42 45 42 39 36 19 8 5 4 4 3 4 4 4 5 5 6 6 5 5 5 6 7 7 6 6 7 8 7 7 9 10 9 11 13 14 21 21 23 48 61 81 100
25 30 44 52 51 36 26 16 12 4 4 4 4 4 4 5 5 6 6 6 6 6 6 6 6 8 7 8 8 7 10 10 10 11 11 13 14 16 20 22 22 36 70 91 100
37 41 53 43 41 31 25 10 9 5 4 4 4 4 5 5 6 7 6 6 6 7 6 5 5 7 10 9 8 7 10 10 12 12 12 14 15 17 19 23 23 31 74 100 100
49 43 49 53 51 30 24 10 5 5 4 4 5 4 6 6 6 7 6 7 7 7 6 5 5 6 10 12 16 13 13 13 14 12 14 14 15 17 18 22 29 48 69 96 100
38 56 45 69 40 30 15 8 5 4 4 4 5 5 6 7 7 7 7 7 8 6 5 5 5 6 7 11 18 24 24 20 19 15 15 16 16 17 19 21 44 52 73 94 100
37 52 60 65 52 20 10 6 5 4 4 4 5 6 7 7 8 7 9 8 6 5 5 5 5 6 7 9 16 26 31 29 26 19 17 17 18 18 21 23 37 62 97 100 100
59 75 54 63 57 42 7 5 5 4 4 4 5 7 7 7 8 8 10 8 5 5 5 5 5 6 7 8 11 18 21 28 29 30 23 19 17 17 17 21 34 52 78 100 99
Wind_Speed
60 66 70 76 81 85 90 94 96 99 96 95 94 90 86 84 79 72 66 61 57 50 48 50 55 57 56 56 63 69 68 68 71 77 85 90 93 96 99 101 96 90 87 83 79
62 68 74 78 83 87 94 98 99 100 99 96 97 94 89 81 73 69 61 57 53 48 47 50 55 56 55 60 60 66 64 65 76 82 88 90 93 98 99 99 101 92 90 87 81
69 72 80 86 89 93 97 101 101 102 100 99 95 90 85 77 69 64 55 51 47 42 45 48 52 55 57 60 61 61 60 74 79 82 87 92 94 96 98 100 102 102 95 90 87
76 82 84 87 91 93 98 98 100 104 100 99 92 87 80 73 64 57 50 51 46 39 43 46 47 51 55 56 62 63 67 76 80 82 86 93 95 95 98 98 102 105 104 98 88
78 83 86 87 91 94 97 96 102 104 103 98 90 85 76 70 63 54 53 51 43 40 45 48 45 51 49 57 62 61 69 76 78 82 85 92 96 95 99 101 101 102 101 102 95
81 82 86 89 92 97 97 97 102 103 101 93 88 83 74 66 61 52 47 49 41 40 47 51 48 53 55 54 55 60 69 77 80 84 88 90 96 97 100 102 101 99 101 102 102
83 85 88 92 93 94 99 100 100 99 98 89 84 80 73 65 61 47 43 44 42 41 44 49 51 54 54 56 58 65 69 75 76 82 88 91 96 96 98 100 103 98 98 98 99
83 86 89 92 94 95 100 103 100 98 96 89 83 78 73 65 55 48 43 40 41 41 42 49 50 53 57 58 64 66 72 73 74 80 88 93 91 100 100 98 104 102 97 100 96
89 90 94 94 92 96 98 106 103 93 96 90 83 77 72 62 49 45 39 36 39 42 42 47 51 54 59 59 65 69 63 65 72 75 85 91 94 98 101 97 102 106 103 98 99
91 90 93 93 93 98 99 102 109 97 90 89 82 75 69 56 47 42 35 31 34 41 41 46 48 54 60 60 51 55 60 66 71 74 81 89 91 98 100 99 99 103 104 101 98
86 93 90 93 96 97 98 99 98 103 99 90 81 73 66 55 44 37 32 29 30 37 36 41 43 49 55 58 63 67 71 74 75 78 82 88 92 95 100 102 99 99 104 106 101
89 91 93 93 94 98 98 101 97 95 94 87 77 70 62 54 42 37 30 27 30 30 33 38 44 56 62 63 68 70 73 75 79 80 83 88 89 92 96 99 98 98 103 106 106
89 91 94 94 95 100 100 101 99 99 93 83 76 66 59 52 44 36 32 26 29 30 30 38 52 57 60 61 66 65 68 72 74 76 81 87 89 92 94 98 98 95 99 103 104
89 92 92 95 97 101 100 103 102 98 90 84 75 64 55 49 42 38 31 26 28 30 31 41 52 53 56 54 60 63 70 76 78 80 80 84 85 91 91 94 95 96 96 98 99
90 90 90 92 96 98 101 104 103 97 91 82 74 61 53 45 40 35 31 25 24 30 35 41 46 46 50 57 60 62 69 74 78 81 80 83 84 85 92 94 94 95 95 93 96
88 92 91 94 98 102 103 105 104 96 91 81 71 59 48 40 38 35 28 25 24 26 34 40 42 44 53 60 60 67 72 78 82 84 83 81 81 88 88 82 90 95 93 92 90
89 91 90 96 102 104 108 104 103 95 88 78 69 57 46 37 33 31 27 24 23 23 32 39 42 45 53 59 61 66 73 79 82 85 76 83 84 85 84 85 92 96 94 92 91
87 87 92 98 101 109 113 106 103 94 87 76 67 55 44 36 30 28 25 23 23 25 30 40 44 46 53 57 60 63 68 73 76 76 75 82 78 78 78 80 87 94 98 97 95
89 90 90 97 107 112 108 107 101 94 84 76 62 51 42 36 28 24 22 23 23 27 30 37 45 48 52 61 64 67 66 70 74 75 80 78 74 75 77 79 84 90 95 93 91
88 88 90 99 107 117 112 105 99 90 81 70 60 50 40 35 27 21 21 23 23 27 30 33 41 49 54 62 65 66 72 73 74 76 78 75 75 77 80 83 84 88 88 92 93
91 87 101 103 110 114 114 107 99 88 79 67 58 49 40 33 26 20 20 21 23 26 30 34 38 48 50 54 59 64 67 70 73 75 72 74 74 75 80 82 84 86 87 89 90
93 95 106 116 118 112 111 104 99 87 74 64 55 46 39 30 25 21 19 20 21 23 27 32 38 43 48 53 62 69 67 68 68 69 71 73 72 78 81 81 84 85 87 88 87
94 95 110 116 127 114 107 104 97 82 71 61 52 43 38 30 24 23 20 20 19 22 26 30 36 42 49 55 59 61 64 67 68 71 72 74 73 77 81 80 82 84 88 87 85
99 100 109 119 122 116 105 100 89 77 67 58 50 42 34 30 25 22 23 19 18 21 25 27 30 40 51 54 53 55 60 63 66 69 71 74 74 75 78 78 80 84 87 89 85
99 108 112 126 126 115 106 96 86 74 62 53 46 43 32 29 25 23 23 19 17 19 23 26 31 39 48 52 56 60 61 61 63 65 68 71 72 73 76 78 77 83 86 88 87
102 111 118 127 133 116 105 93 83 70 61 51 44 39 33 27 26 25 22 20 16 18 22 26 32 37 46 53 58 62 67 65 64 64 67 70 71 72 75 78 79 81 87 87 87
108 115 120 126 134 130 104 89 78 68 56 51 44 37 31 27 24 25 23 21 15 17 23 28 32 36 45 54 58 66 67 68 67 65 66 68 71 72 73 76 77 78 84 88 87
Wind_Direction
322 323 319 318 315 314 315 316 316 317 318 318 317 315 312 309 304 301 297 287 281 276 265 251 245 239 236 233 230 231 229 222 218 217 217 216 214 216 218 222 223 227 226 222 223
322 319 318 317 316 317 316 317 315 316 318 318 315 313 311 308 304 299 294 284 280 276 267 253 244 238 232 228 227 228 228 220 220 217 216 216 215 216 217 218 222 222 227 226 222
320 320 319 319 319 319 318 316 317 317 318 316 314 313 311 308 304 299 291 288 280 273 263 252 243 237 231 229 224 224 223 220 218 218 216 216 215 214 217 217 218 221 221 225 224
321 321 320 318 319 317 316 317 318 317 317 316 314 314 314 310 306 304 288 277 272 263 253 246 240 236 231 229 222 219 219 220 218 218 217 216 216 213 216 218 218 218 222 221 223
322 321 319 318 318 317 316 318 317 318 317 317 316 316 315 311 306 298 289 281 272 259 244 242 232 230 226 226 224 217 220 219 217 217 217 217 216 214 215 218 219 217 219 224 221
321 320 318 319 320 317 318 318 319 319 319 319 318 318 316 313 308 301 284 275 265 254 247 235 226 225 220 220 218 218 220 221 215 215 216 215 218 216 215 216 220 218 220 221 225
320 321 319 322 321 320 319 318 320 320 321 321 320 318 318 313 308 298 286 271 262 252 242 237 230 219 221 216 216 217 219 221 219 215 215 215 216 218 216 215 219 219 218 219 223
320 320 321 322 322 322 321 320 322 324 322 323 323 322 320 315 307 297 284 266 255 249 237 233 231 220 218 215 214 214 216 219 220 216 216 215 213 217 218 214 217 221 218 220 220
322 323 323 323 324 323 325 324 325 328 325 324 324 323 320 315 307 298 286 262 253 248 231 233 227 222 219 218 214 214 215 215 219 218 217 217 214 215 219 216 216 218 220 220 221
325 324 324 323 324 324 324 327 328 330 327 327 326 324 320 315 308 300 290 266 250 247 235 230 227 223 218 219 217 217 216 217 217 217 218 219 216 216 216 218 216 216 219 220 221
325 324 323 326 326 327 327 327 330 330 333 330 328 326 322 316 310 299 290 270 248 246 238 231 226 224 221 217 213 210 210 210 212 215 216 217 216 217 216 216 217 215 218 219 221
323 325 326 327 329 328 331 328 329 329 330 329 329 325 320 318 314 300 289 273 254 242 234 232 220 218 217 213 213 210 209 212 213 212 213 215 217 216 217 217 217 217 216 220 221
324 325 326 329 331 330 333 331 331 330 332 333 329 326 321 316 312 297 287 270 255 239 227 220 222 218 217 215 216 212 210 212 216 214 215 215 215 214 214 216 218 219 217 217 221
323 325 330 334 333 336 334 333 332 332 334 333 329 326 320 315 307 298 285 270 255 239 226 217 220 216 218 218 219 213 211 212 213 214 215 217 217 215 213 213 215 219 221 219 221
326 330 335 335 335 335 336 333 333 335 333 334 331 326 322 313 303 291 285 272 248 241 228 225 221 216 217 215 215 213 213 214 214 216 214 215 216 216 215 212 213 218 221 222 221
330 334 338 341 339 338 335 335 334 336 334 333 332 326 322 312 301 293 285 274 255 230 230 229 221 215 213 217 213 210 212 213 215 216 214 215 214 218 216 212 213 217 220 222 224
333 337 340 342 344 341 341 337 334 335 334 335 331 326 323 314 303 292 285 274 261 236 229 228 223 214 216 218 214 214 212 213 215 218 215 216 214 214 214 212 213 214 217 220 224
341 341 344 344 343 342 342 338 334 335 335 336 330 327 324 315 305 293 284 273 260 246 226 225 223 216 213 216 215 215 217 217 218 219 218 218 215 214 216 213 214 216 216 217 220
337 342 341 344 345 343 339 336 334 335 335 333 329 327 324 316 306 294 283 273 261 249 236 221 223 220 214 217 213 215 213 217 217 216 218 218 213 213 214 213 214 216 220 219 222
339 342 345 345 345 344 341 335 334 335 335 333 329 327 325 316 308 299 286 272 260 247 238 225 219 221 217 217 216 214 210 213 214 215 217 216 213 212 210 212 213 216 219 220 220
339 341 348 345 345 343 341 337 333 334 334 332 329 327 324 316 310 301 287 272 258 246 235 228 220 219 220 217 218 218 218 215 213 215 217 217 212 211 211 212 214 214 217 220 220
341 343 348 347 345 344 339 336 334 333 333 330 328 327 321 319 313 307 294 277 262 249 237 229 223 220 216 215 215 216 211 215 213 215 215 216 212 210 212 211 214 214 214 218 220
340 345 348 348 347 342 337 338 334 332 332 331 328 327 321 320 316 312 299 282 266 252 237 228 221 216 215 214 215 216 214 212 210 212 213 214 212 210 213 211 213 214 213 214 220
345 347 350 349 348 341 336 336 336 333 332 331 328 326 323 319 318 315 301 288 273 254 239 228 222 214 213 213 209 216 217 213 213 212 212 213 212 210 212 210 211 214 214 213 215
344 347 347 348 344 340 337 334 334 332 333 332 328 323 324 320 319 315 302 293 277 253 234 224 218 215 213 211 209 207 213 213 211 212 211 212 213 211 212 210 209 211 215 215 214
342 347 349 349 346 340 337 336 334 333 333 333 328 323 323 320 320 316 305 296 276 248 232 221 218 214 210 207 207 210 210 211 211 212 210 211 211 210 210 210 208 207 212 215 216
347 347 350 346 345 341 336 334 333 332 333 332 329 324 321 321 321 315 308 297 273 242 231 222 218 214 211 206 207 210 211 210 209 209 211 211 211 210 211 210 210 208 210 215 217